TimeMDT,TemperatureF,Dew PointF,Humidity,Sea Level PressureIn,VisibilityMPH,Wind Direction,Wind SpeedMPH,Gust SpeedMPH,PrecipitationIn,Events,Conditions,WindDirDegrees,DateUTC
12:53 AM,57.0,48.0,72,29.63,10.0,SE,6.9,-,N/A,,Clear,140,2013-05-28 06:53:00
1:53 AM,59.0,53.1,81,29.60,10.0,ESE,4.6,-,N/A,,Partly Cloudy,120,2013-05-28 07:53:00
2:53 AM,57.0,52.0,83,29.65,10.0,North,9.2,-,N/A,,Partly Cloudy,360,2013-05-28 08:53:00
3:06 AM,57.2,51.8,82,29.76,10.0,NW,6.9,-,N/A,,Mostly Cloudy,310,2013-05-28 09:06:00
3:53 AM,59.0,54.0,83,29.65,10.0,NE,3.5,-,N/A,,Overcast,40,2013-05-28 09:53:00
4:53 AM,60.1,57.0,90,29.67,10.0,Calm,Calm,-,N/A,,Overcast,0,2013-05-28 10:53:00
5:53 AM,59.0,57.0,93,29.70,10.0,WNW,11.5,-,N/A,,Overcast,290,2013-05-28 11:53:00
6:53 AM,59.0,55.9,90,29.70,10.0,North,12.7,-,N/A,,Scattered Clouds,350,2013-05-28 12:53:00
7:31 AM,59.0,57.2,94,29.80,10.0,North,6.9,-,N/A,Thunderstorm,Mostly Cloudy,10,2013-05-28 13:31:00
7:53 AM,60.1,57.0,90,29.69,10.0,NNE,6.9,-,N/A,,Partly Cloudy,30,2013-05-28 13:53:00
8:53 AM,64.9,57.0,75,29.65,10.0,East,16.1,-,N/A,,Clear,90,2013-05-28 14:53:00
9:53 AM,69.1,55.9,63,29.68,10.0,East,13.8,-,N/A,,Clear,80,2013-05-28 15:53:00
10:53 AM,71.1,55.9,59,29.67,10.0,ENE,11.5,-,N/A,,Clear,60,2013-05-28 16:53:00
11:53 AM,75.9,54.0,46,29.65,10.0,ENE,8.1,-,N/A,,Clear,60,2013-05-28 17:53:00
12:53 PM,80.1,52.0,38,29.61,10.0,Variable,4.6,-,N/A,,Clear,0,2013-05-28 18:53:00
1:53 PM,84.9,48.9,29,29.58,10.0,ESE,23.0,29.9,N/A,,Partly Cloudy,120,2013-05-28 19:53:00
2:53 PM,84.9,45.0,25,29.57,10.0,SE,11.5,23.0,N/A,,Clear,140,2013-05-28 20:53:00
3:53 PM,84.0,46.9,27,29.54,10.0,ESE,16.1,23.0,N/A,,Partly Cloudy,120,2013-05-28 21:53:00
4:53 PM,84.0,52.0,33,29.52,10.0,ESE,18.4,25.3,N/A,,Scattered Clouds,110,2013-05-28 22:53:00
5:53 PM,80.1,55.0,42,29.50,10.0,ESE,23.0,26.5,N/A,,Partly Cloudy,120,2013-05-28 23:53:00
6:53 PM,75.9,59.0,56,29.47,10.0,East,16.1,-,N/A,,Clear,100,2013-05-29 00:53:00
7:53 PM,73.0,59.0,61,29.47,10.0,ESE,15.0,-,N/A,,Clear,110,2013-05-29 01:53:00
8:53 PM,70.0,59.0,68,29.49,10.0,ESE,19.6,-,N/A,,Clear,120,2013-05-29 02:53:00
9:53 PM,70.0,46.9,44,29.50,10.0,SE,13.8,-,N/A,,Overcast,140,2013-05-29 03:53:00
10:53 PM,72.0,43.0,35,29.47,10.0,SSE,19.6,-,N/A,,Clear,160,2013-05-29 04:53:00
11:53 PM,68.0,44.1,42,29.44,10.0,SSE,24.2,31.1,N/A,,Clear,160,2013-05-29 05:53:00